SCP
0 0 0 0 0 0 0 0 0 0 0 0 0 0 0 0 0 0 0 0 0 0 0 0 0 0 0 0 0 0 0 0 0 0 0 0 0 0 0 0 0 0 0
0 0 0 0 0 0 0 0 0 0 0 0 0 0 0 0 0 0 0 0 0 0 0 0 0 0 0 0 0 0 0 0 0 0 0 0 0 0 0 0 0 0 0
0 0 0 0 0 0 0 0 0 0 0 0 0 0 0 0 0 0 0 0 0 0 0 0 0 0 0 0 0 0 0 0 0 0 0 0 0 0 0 0 0 0 0
0 0 0 0 0 0 0 0 0 0 0 0 0 0 0 0 0 0 0 0 0 0 0 0 0 0 0 0 0 0 0 0 0 0 0 0 0 0 0 0 0 0 0
0 0 0 0 0 0 0 0 0 0 0 0 0 0 0 0 0 0 0 0 0 0 0 0 0 0 0 0 0 0 0 0 0 0 0 0 0 0 0 0 0 0 0
0 0 0 0 0 0 0 0 0 0 0 0 0 0 0 0 0 0 0 0 0 0 0 0 0 0 0 0 0 0 0 0 0 0 0 0 0 0 0 0 0 0 0
0 0 0 0 0 0 0 0 0 0 0 0 0 0 0 0 0 0 0 0 0 0 0 0 0 0 0 0 0 0 0 0 0 0 0 0 0 0 0 0 0 0 0
0 0 0 0 0 0 0 0 0 0 0 0 0 0 0 0 0 0 0 0 0 0 0 0 0 0 0 0 0 0 0 0 0 0 0 0 0 0 0 0 0 0 0
0 0 0 0 0 0 0 0 0 0 0 0 0 0 0 0 0 0 0 0 0 0 0 0 0 0 0 0 0 0 0 0 0 0 0 0 0 0 0 0 0 0 0
0 0 0 0 0 0 0 0 0 0 0 0 0 0 0 0 0 0 0 0 0 0 0 0 0 0 0 0 0 0 0 0 0 0 0 0 0 0 0 0 0 0 0
0 0 0 0 0 0 0 0 0 0 0 0 0 0 0 0 0 0 0 0 0 0 0 0 0 0 0 0 0 0 0 0 0 0 0 0 0 0 0 0 0 0 0
0 0 0 0 0 0 0 0 0 0 0 0 0 0 0 0 0 0 0 0 0 0 0 0 0 0 0 0 0 0 0 0 0 0 0 0 0 0 0 0 0 0 0
0 0 0 0 0 0 0 0 0 0 0 0 0 0 0 0 0 0 0 0 0 0 0 0 0 0 0 0 0 0 0 0 0 0 0 0 0 0 0 0 0 0 0
0 0 0 0 0 0 0 0 0 0 0 0 0 0 0 0 0 0 0 0 0 0 0 0 0 0 0 0 0 0 0 0 0 0 0 0 0 0 0 0 0 0 0
0 0 0 0 0 0 0 0 0 0 0 0 0 0 0 0 0 0 0 0 0 0 0 0 0 0 0 0 0 0 0 0 0 0 0 0 0 0 0 0 0 0 0
0 0 0 0 0 0 0 0 0 0 0 0 0 0 0 0 0 0 0 0 0 0 0 0 0 0 0 0 0 0 0 0 0 0 0 0 0 0 0 0 0 0 0
0 0 0 0 0 0 0 0 0 0 0 0 0 0 0 0 0 0 0 0 0 0 0 0 0 0 0 0 0 0 0 0 0 0 0 0 0 0 0 0 0 0 0
0 0 0 0 0 0 0 0 0 0 0 0 0 0 0 0 0 0 0 0 0 0 0 0 0 0 0 0 0 0 0 0 0 0 0 0 0 0 0 0 0 0 0
0 0 0 0 0 0 0 0 0 0 0 0 0 0 0 0 0 0 0 0 0 0 0 0 0 0 0 0 0 0 0 0 0 0 0 0 0 0 0 0 0 0 0
0 0 0 0 0 0 0 0 0 0 0 0 0 0 0 0 0 0 0 0 0 0 0 0 0 0 0 0 0 0 0 0 0 0 0 0 0 0 0 0 0 0 0
0 0 0 0 0 0 0 0 0 0 0 0 0 0 0 0 0 0 0 0 0 0 0 0 0 0 0 0 0 0 0 0 0 0 0 0 0 0 0 0 0 0 0
0 0 0 0 0 0 0 0 0 0 0 0 0 0 0 0 0 0 0 0 0 0 0 0 0 0 0 0 0 0 0 0 0 0 0 0 0 0 0 0 0 0 0
0 0 0 0 0 0 0 0 0 0 0 0 0 0 0 0 0 0 0 0 0 0 0 0 0 0 0 0 0 0 0 0 0 0 0 0 0 0 0 0 0 0 0
0 0 0 0 0 0 0 0 0 0 0 0 0 0 0 0 0 0 0 0 0 0 0 0 0 0 0 0 0 0 0 0 0 0 0 0 0 0 0 0 0 0 0
0 0 0 0 0 0 0 0 0 0 0 0 0 0 0 0 0 0 0 0 0 0 0 0 0 0 0 0 0 0 0 0 0 0 0 0 0 0 0 0 0 0 0
0 0 0 0 0 0 0 0 0 0 0 0 0 0 0 0 0 0 0 0 0 0 0 0 0 0 0 0 0 0 0 0 0 0 0 0 0 0 0 0 0 0 0
Wind_Speed
2 3 6 8 9 8 8 9 9 9 9 9 9 9 9 9 9 9 9 9 9 9 9 10 10 11 11 12 13 13 13 13 13 13 12 12 13 13 13 13 12 9 15
4 4 6 8 9 8 8 8 8 8 8 8 8 8 8 8 8 8 8 8 8 8 9 9 9 10 11 12 12 12 12 12 12 12 10 9 10 12 13 12 12 9 14
4 4 5 8 8 8 8 8 7 7 7 7 7 7 7 7 7 7 7 8 8 8 8 8 9 10 10 11 11 11 11 11 11 11 9 5 6 11 12 12 12 13 14
4 3 4 7 8 8 8 7 6 7 6 6 6 6 6 6 7 6 7 7 7 7 8 8 9 9 9 10 10 10 10 10 10 9 5 4 4 9 11 11 12 12 13
4 3 4 7 7 7 7 6 6 6 6 6 5 5 5 6 6 6 6 6 6 7 7 7 8 9 9 8 9 9 9 10 9 7 4 4 4 8 10 10 11 12 12
4 3 3 6 6 6 6 5 5 5 5 5 5 5 5 5 5 5 6 6 6 6 7 7 7 8 8 8 8 8 9 9 7 4 4 3 3 6 9 10 10 11 11
4 3 3 5 6 6 5 5 5 4 4 4 4 4 5 5 5 5 5 5 5 6 6 7 7 7 7 7 7 8 8 8 5 4 3 2 2 6 8 9 10 10 10
4 4 3 4 4 4 5 4 4 3 4 4 4 4 4 5 4 5 4 4 4 5 6 6 7 7 7 7 7 7 8 6 5 3 2 2 3 6 7 8 9 9 10
5 4 3 3 3 3 3 4 4 3 3 4 4 4 4 4 4 4 4 4 4 4 5 5 6 6 6 7 7 8 8 7 4 2 2 1 3 6 7 8 8 9 9
5 4 4 4 3 3 2 2 3 3 4 4 4 5 5 4 4 4 3 3 3 4 4 5 5 5 6 6 7 7 7 5 3 2 1 1 3 5 6 7 8 8 8
4 4 4 4 3 3 2 3 3 3 3 3 3 4 4 3 3 2 3 3 3 3 3 4 5 5 5 5 6 6 5 2 2 1 1 1 3 5 6 6 7 8 8
3 4 4 4 3 3 2 3 2 2 2 2 2 2 2 2 2 2 3 3 3 3 3 4 5 5 4 2 3 4 2 2 2 1 1 1 2 4 5 6 6 7 7
1 3 3 3 3 2 2 2 2 2 2 2 2 1 1 2 1 1 1 1 1 2 2 2 3 2 2 2 2 2 2 1 1 1 1 2 2 4 4 5 6 6 6
3 3 3 3 3 2 2 1 1 1 1 1 1 1 1 1 1 1 1 0 1 1 1 1 1 2 2 2 2 2 2 1 1 0 1 2 1 2 3 4 4 5 6
3 3 3 3 3 2 2 1 1 1 1 1 1 1 0 1 1 1 0 0 0 1 1 1 2 2 2 2 2 2 2 1 1 1 1 2 1 1 2 4 4 4 5
4 4 3 3 3 2 2 1 1 1 1 1 1 1 1 0 1 1 1 0 0 1 1 2 2 2 1 2 2 1 1 1 1 1 1 1 1 1 1 2 3 3 4
4 4 3 3 3 3 2 2 1 1 1 1 1 1 1 0 0 1 1 1 1 1 1 2 2 2 1 1 1 1 1 1 1 1 1 1 1 1 1 1 2 2 3
4 4 4 3 3 3 2 2 1 1 1 1 1 1 1 1 0 0 1 1 1 1 1 2 2 2 1 1 1 1 1 1 1 1 1 1 1 1 1 2 2 2 2
5 4 4 4 3 2 2 2 2 2 2 1 1 1 1 1 1 0 1 1 1 1 2 2 2 2 2 2 1 1 1 1 1 1 1 1 1 1 1 2 3 2 2
6 5 4 4 4 3 2 2 2 3 2 2 1 2 1 1 1 0 0 1 1 1 2 2 2 2 2 2 2 2 1 1 1 1 1 1 1 2 2 2 2 2 3
8 7 5 5 5 3 2 2 2 2 2 2 2 2 2 2 1 0 1 1 1 2 2 3 3 3 2 2 2 2 2 2 1 1 1 1 1 1 2 2 2 1 1
7 7 7 6 5 4 2 2 2 2 1 1 2 3 3 2 2 1 1 1 1 1 2 3 3 3 2 2 3 2 1 0 1 1 1 1 1 1 2 2 2 1 1
7 7 6 7 6 5 4 2 2 2 2 2 3 3 3 3 2 1 1 1 2 2 2 3 3 4 3 2 2 3 3 3 1 0 1 1 1 1 1 1 2 1 1
7 6 6 6 6 5 4 3 2 2 2 3 2 3 3 2 2 2 1 1 2 2 2 3 3 3 4 3 1 0 1 3 3 1 0 0 1 1 0 1 1 1 1
7 6 6 7 7 6 5 3 2 2 2 2 2 3 3 3 2 2 2 1 2 2 2 2 2 3 3 4 3 2 1 1 1 3 2 1 0 0 0 0 0 0 0
7 7 7 7 7 7 6 4 3 3 3 3 3 3 3 3 2 2 2 2 2 2 2 3 3 3 3 3 3 3 3 3 3 2 2 2 1 1 1 0 0 0 0
Wind_Direction
199 202 178 151 141 136 130 123 116 110 105 103 104 105 103 104 105 104 103 100 97 93 93 91 88 87 87 86 85 85 85 83 82 81 80 82 86 90 91 88 84 81 86
165 175 168 150 141 135 131 126 119 113 108 105 104 103 104 106 108 105 105 104 102 98 95 94 91 89 89 88 86 86 86 85 83 80 76 77 83 89 92 90 90 90 89
141 156 160 150 140 133 127 125 120 116 112 109 109 107 106 107 111 106 104 103 103 103 99 96 95 93 90 90 89 89 88 89 84 78 74 68 80 89 92 92 92 93 92
135 140 148 147 139 133 127 123 124 124 119 114 112 111 111 111 112 111 106 103 101 101 101 98 98 98 94 92 93 92 89 88 84 77 68 64 75 91 93 96 96 95 94
109 111 133 135 134 132 130 127 122 125 127 120 118 119 116 115 111 108 107 102 99 98 103 104 102 101 98 96 96 95 91 85 79 74 66 63 67 95 97 99 99 98 96
90 88 116 121 123 122 122 125 126 126 127 128 126 125 122 116 114 111 105 102 101 104 109 112 112 108 103 100 101 99 91 85 77 72 66 65 71 98 104 105 103 103 103
80 67 88 108 116 121 121 120 122 129 127 125 131 131 129 123 117 114 107 105 109 109 111 114 118 115 109 105 104 103 96 86 81 74 66 67 90 107 110 110 108 108 107
71 56 57 80 94 110 118 117 114 119 126 122 117 121 120 113 112 112 108 110 114 117 116 112 114 115 112 108 105 103 97 87 79 74 67 66 107 115 116 113 111 110 110
60 52 38 42 52 65 89 105 102 96 100 107 107 98 99 106 104 106 101 104 110 114 116 116 116 115 111 109 105 100 91 81 73 60 59 56 104 119 119 117 115 112 112
48 43 35 31 37 35 30 62 86 86 85 88 89 86 79 82 87 90 85 86 97 106 112 116 118 116 108 106 104 99 89 76 68 55 35 54 103 124 122 119 118 117 116
35 27 30 33 33 31 29 36 51 71 74 74 72 77 73 60 60 68 71 71 78 89 99 110 118 111 100 97 101 98 88 76 71 48 19 60 114 128 127 124 121 121 119
17 12 20 26 28 32 32 34 35 43 51 55 57 62 69 71 61 58 55 55 61 74 83 96 103 101 92 82 88 89 85 86 74 38 24 61 124 131 130 130 126 127 126
353 7 8 16 23 35 36 42 38 35 38 44 54 66 77 74 64 52 50 26 33 60 68 74 78 87 99 106 99 95 98 94 84 49 27 49 124 136 133 132 133 134 137
15 2 0 8 16 23 38 45 53 50 41 33 28 52 84 92 87 84 68 57 53 74 86 78 94 96 103 110 119 115 108 104 97 75 28 34 107 142 142 140 140 144 147
9 5 1 14 22 19 34 31 38 28 31 25 21 16 69 140 160 144 128 86 91 107 118 115 111 108 109 111 113 116 115 109 97 83 24 30 63 140 150 150 153 155 160
355 355 2 18 22 29 30 18 10 7 359 16 7 357 15 180 186 170 159 170 193 173 156 147 140 133 123 121 112 110 117 119 104 97 63 20 39 62 142 157 161 162 172
345 355 4 13 24 29 22 8 2 350 1 2 340 352 9 2 213 190 176 193 215 192 160 141 126 119 118 110 110 105 103 110 115 98 79 58 47 45 71 130 148 162 172
352 358 0 3 16 20 14 5 5 1 357 341 341 342 339 338 278 192 191 209 211 188 171 159 147 134 135 132 121 107 101 103 109 103 92 83 75 62 42 60 97 121 149
355 357 358 0 4 7 6 6 9 10 4 346 342 336 321 314 300 179 217 233 208 185 181 178 157 151 152 146 127 97 87 97 96 93 84 77 82 83 76 63 71 66 72
1 3 2 0 2 0 10 12 12 11 1 357 345 332 327 315 313 273 215 246 212 188 188 179 170 153 153 148 116 86 64 66 78 77 81 72 69 81 82 76 71 59 59
6 7 3 4 360 3 3 355 347 341 340 346 346 342 342 334 316 318 296 246 222 208 202 186 174 154 148 142 117 90 48 60 74 72 76 84 73 75 82 79 75 73 55
0 0 0 355 352 348 337 335 325 318 319 327 341 340 341 337 319 286 268 252 236 224 201 190 176 162 159 165 145 139 143 10 21 57 68 96 89 73 80 79 76 74 74
357 355 352 346 344 345 344 0 4 3 357 1 344 331 325 319 311 314 290 262 237 222 214 204 194 177 178 189 169 157 161 192 199 346 67 85 90 94 87 90 86 79 68
344 346 348 347 347 345 349 353 3 342 325 315 314 310 316 315 313 301 289 274 245 230 221 217 206 197 177 185 187 154 152 148 154 178 274 85 95 93 76 54 75 76 85
341 347 345 349 351 349 344 335 320 312 313 320 328 319 320 314 309 300 283 277 268 247 230 219 212 198 189 183 179 167 146 109 133 151 194 228 356 324 277 242 187 150 228
350 353 350 351 348 346 340 335 323 311 316 325 323 311 312 308 301 299 288 275 277 267 241 227 211 202 197 184 180 178 169 161 167 159 174 192 220 261 291 263 218 235 263